Location: Ajisawe
(8.4333°N, 4.3833°E)
Time: 21:14:10
(UTC+00:00)

NOSS 3-1 (A) - Pass Details

Date: 07 June 2020
Orbit: 755 x 1458 km, 63.4° (Epoch: 16 June)

Event Time Altitude Azimuth Distance (km) Brightness Sun altitude
Rises 03:16:10 0° 338° (NNW) 4,346 7.0 -28.9°
Reaches altitude 10° 03:18:57 10° 339° (NNW) 3,439 6.4 -28.3°
Maximum altitude 03:27:38 83° 67° (ENE) 1,462 4.3 -26.5°
Drops below altitude 10° 03:36:36 10° 154° (SSE) 3,548 6.4 -24.6°
Sets 03:39:30 0° 155° (SSE) 4,489 6.9 -23.9°
